Location: Red Deer
(52.2681°N, 113.8112°W)
Time: 17:38:03
(UTC-06:00)

CAS-4B - Visible Passes

Search period start: 30 May 2023 00:00
Search period end: 09 June 2023 00:00
Orbit: 507 x 522 km, 43.0° (Epoch: 30 May)

Date Brightness Start Highest point End Pass type
(mag) Time Alt. Az. Time Alt. Az. Time Alt. Az.
30 May ? 04:15:21 10° SSW 04:18:06 19° SSE 04:20:57 10° ESE visible
31 May ? 03:58:15 13° SSW 04:00:29 20° S 04:03:23 10° ESE visible
01 Jun ? 03:41:10 16° SSW 03:42:52 20° S 03:45:49 10° ESE visible
02 Jun ? 03:24:03 18° SSW 03:25:14 20° S 03:28:13 10° SE visible
03 Jun ? 03:06:58 20° S 03:07:35 21° S 03:10:35 10° SE visible
04 Jun ? 02:49:57 21° S 02:49:57 21° S 02:52:58 10° SE visible
04 Jun ? 04:26:05 10° WSW 04:28:47 18° SSW 04:31:30 10° SSE visible
05 Jun ? 02:33:04 20° SSE 02:33:04 20° SSE 02:35:19 10° SE visible
05 Jun ? 04:08:30 10° WSW 04:11:07 17° SSW 04:13:43 10° SSE visible
06 Jun ? 02:16:28 16° SE 02:16:28 16° SE 02:17:39 10° SE visible
06 Jun ? 03:51:22 12° SW 03:53:25 16° SSW 03:55:55 10° SSE visible
07 Jun ? 03:35:27 15° SSW 03:35:43 15° SSW 03:38:05 10° SSE visible
07 Jun ? 23:57:53 10° SSW 23:58:12 11° SSW 23:58:12 11° SSW visible
08 Jun ? 23:40:04 10° SSW 23:42:40 17° SSE 23:43:14 17° SSE visible
